"Pseudo-MPEC" for TTT0007

Created 2024 Oct 5 6:22:29 UT using Find_Orb

Click here for an explanation of pseudo-MPECs

 
 Astrometry: 
     TTT0007*KB2024 09 30.86502 21 49 40.90 -12 48 09.2    ~A207       VNEOCPY64
     TTT0007 KB2024 09 30.87202 21 49 41.29 -12 48 37.8    ~A207 21.3 GVNEOCPY64
     TTT0007 KB2024 09 30.87919 21 49 41.66 -12 49 07.3    ~A207 21.6 GVNEOCPY64

Station data:
(Y64) Transient Survey Telescope, Teide  (N28.298930 W16.510390)  Canary
   Islands (Spain).

Orbital elements:  TTT0007
   Perihelion 2024 Aug 3.83736 +/- 60.1 TT = 20:05:48 (JD 2460526.33736)
Epoch 2024 Oct  1.0 TT = JDT 2460584.5   Earth MOID: 0.0917   Ma: 0.0346
M  41.68118087 +/- 51               (J2000 ecliptic)             AutoNEOCP
n   0.71663152 +/- 0.554            Peri.   31.66532 +/- 90
a   1.23672206 +/- 0.637            Node   178.41601 +/- 5.4
e   0.8490403 +/- 0.277             Incl.   47.67004 +/- 28
P   1.375/502.341d         H 22.47  G  0.15   U 12.4  SR
q 0.18669512 +/- 0.508    Q 2.28674899 +/- 24.4
From 3 observations 2024 Sept. 30 (20.4 min); mean residual 0".08
Residuals in arcseconds: 
240930 Y64  .07-  .04-    240930 Y64  .14+  .08+    240930 Y64  .07-  .04-    

Ephemerides (geocentric):
Date (UTC) HH   RA             Dec           delta  r     elong  mag " sig PA
---- --------  ------------   ------------  ------ ------ -----  --- --------
2024 10 05 06  21 53 55.776   -16 36 28.60  .39064 1.2970 132.7 22.4 6193  29
2024 10 05 07  21 53 58.033   -16 38 07.04  .39149 1.2975 132.6 22.4 6357  29
2024 10 05 08  21 54 00.288   -16 39 45.00  .39234 1.2981 132.6 22.4 6527  29
2024 10 05 09  21 54 02.540   -16 41 22.50  .39319 1.2986 132.6 22.4 6703  30
2024 10 05 10  21 54 04.791   -16 42 59.53  .39404 1.2991 132.5 22.4 6885  30
2024 10 05 11  21 54 07.039   -16 44 36.10  .39489 1.2996 132.5 22.5 7075  30
2024 10 05 12  21 54 09.286   -16 46 12.21  .39574 1.3001 132.4 22.5 7272  31
2024 10 05 13  21 54 11.530   -16 47 47.86  .39660 1.3007 132.4 22.5 7477  31
2024 10 05 14  21 54 13.772   -16 49 23.05  .39745 1.3012 132.3 22.5 7691  31
2024 10 05 15  21 54 16.013   -16 50 57.80  .39830 1.3017 132.3 22.5 7914  32
2024 10 05 16  21 54 18.251   -16 52 32.09  .39915 1.3022 132.2 22.5 8146  32
2024 10 05 17  21 54 20.487   -16 54 05.94  .40000 1.3027 132.2 22.5 8388  32
2024 10 05 18  21 54 22.722   -16 55 39.35  .40086 1.3033 132.2 22.5 8641  33
2024 10 05 19  21 54 24.954   -16 57 12.31  .40171 1.3038 132.1 22.5 8906  33
2024 10 05 20  21 54 27.185   -16 58 44.83  .40256 1.3043 132.1 22.5 9182  34
2024 10 05 21  21 54 29.413   -17 00 16.92  .40342 1.3048 132.0 22.5 9472  34
2024 10 05 22  21 54 31.640   -17 01 48.58  .40427 1.3053 132.0 22.5 9776  34
2024 10 05 23  21 54 33.865   -17 03 19.80  .40512 1.3058 131.9 22.5 168'  35
2024 10 06 00  21 54 36.088   -17 04 50.60  .40598 1.3064 131.9 22.5 174'  35
2024 10 06 01  21 54 38.310   -17 06 20.97  .40683 1.3069 131.9 22.5 180'  36
2024 10 06 02  21 54 40.529   -17 07 50.91  .40768 1.3074 131.8 22.5 186'  36
2024 10 06 03  21 54 42.747   -17 09 20.44  .40854 1.3079 131.8 22.5 192'  37
2024 10 06 04  21 54 44.963   -17 10 49.55  .40939 1.3084 131.7 22.5 199'  37
2024 10 06 05  21 54 47.177   -17 12 18.24  .41025 1.3089 131.7 22.6 207'  38
2024 10 06 06  21 54 49.390   -17 13 46.51  .41110 1.3095 131.6 22.6 214'  38
2024 10 06 07  21 54 51.600   -17 15 14.38  .41196 1.3100 131.6 22.6 222'  39
2024 10 06 08  21 54 53.810   -17 16 41.84  .41281 1.3105 131.6 22.6 231'  40
2024 10 06 09  21 54 56.017   -17 18 08.89  .41367 1.3110 131.5 22.6 240'  40
2024 10 06 10  21 54 58.223   -17 19 35.53  .41452 1.3115 131.5 22.6 250'  41
2024 10 06 11  21 55 00.427   -17 21 01.77  .41538 1.3120 131.4 22.6 260'  42
2024 10 06 12  21 55 02.630   -17 22 27.62  .41623 1.3125 131.4 22.6 271'  42
2024 10 06 13  21 55 04.831   -17 23 53.07  .41709 1.3131 131.3 22.6 282'  43
2024 10 06 14  21 55 07.031   -17 25 18.12  .41794 1.3136 131.3 22.6 295'  44
2024 10 06 15  21 55 09.229   -17 26 42.78  .41880 1.3141 131.3 22.6 308'  45
2024 10 06 16  21 55 11.425   -17 28 07.04  .41966 1.3146 131.2 22.6 322'  46
2024 10 06 17  21 55 13.620   -17 29 30.92  .42051 1.3151 131.2 22.6 337'  47
2024 10 06 18  21 55 15.813   -17 30 54.42  .42137 1.3156 131.1 22.6 353'  49
2024 10 06 19  21 55 18.005   -17 32 17.53  .42223 1.3161 131.1 22.6 370'  50
2024 10 06 20  21 55 20.196   -17 33 40.25  .42309 1.3167 131.1 22.6 389'  51
2024 10 06 21  21 55 22.385   -17 35 02.60  .42394 1.3172 131.0 22.6 408'  53
2024 10 06 22  21 55 24.572   -17 36 24.57  .42480 1.3177 131.0 22.6 429'  54
2024 10 06 23  21 55 26.759   -17 37 46.16  .42566 1.3182 130.9 22.7 450'  56
2024 10 07 00  21 55 28.944   -17 39 07.39  .42652 1.3187 130.9 22.7 473'  57
2024 10 07 01  21 55 31.127   -17 40 28.23  .42737 1.3192 130.8 22.7 496'  59
2024 10 07 02  21 55 33.309   -17 41 48.72  .42823 1.3197 130.8 22.7 520'  60
2024 10 07 03  21 55 35.490   -17 43 08.83  .42909 1.3202 130.8 22.7 544'  62
2024 10 07 04  21 55 37.669   -17 44 28.58  .42995 1.3207 130.7 22.7 569'  63
2024 10 07 05  21 55 39.847   -17 45 47.96  .43081 1.3213 130.7 22.7 592'  65